M I D A S
Marine Information and Data Acquisition System
Tripno 744 of the Zeeleeuw from 2004-07-05 06:15:59 to 2004-07-05 13:01:16
Back to CruiseResearch ActivitiesStationsMapUnderway DataData graphs

EquipmentUnitsComments
TimeDGPSUTC
LatitudeDGPSDM.mWGS84
LongitudeDGPSDM.mWGS84
SpeedMeteo Stationm/sRelative wind speed
DirectionMeteo StationdegRelative wind direction
TemperatureMeteo Stationdeg CelciusAir temperature
PressureMeteo StationPaAtmospheric pressure
HumidityMeteo Station%Relative humidity
Missing or incorrect values are displayed as -999
Metereological data collected by the RV Zeeleeuw from 2004-07-05 06:15:59 to 2004-07-05 13:01:16
                                                                                    Next 1000 lines
Time Latitude Longitude Speed Direction Temperature Pressure Humidity
2004-07-05 06:16:08 51°13.603 2°56.066 4.4 166 15.5 101580 82
2004-07-05 06:16:13 51°13.605 2°56.06 5.1 160 15.5 101580 82
2004-07-05 06:16:17 51°13.607 2°56.055 5.2 161 15.5 101580 82
2004-07-05 06:16:23 51°13.611 2°56.046 4.9 162 15.5 101580 82
2004-07-05 06:16:27 51°13.613 2°56.041 4.2 167 15.5 101580 82
2004-07-05 06:16:33 51°13.616 2°56.032 3.8 197 15.5 101580 82
2004-07-05 06:16:38 51°13.619 2°56.025 4.7 181 15.5 101580 82
2004-07-05 06:16:43 51°13.621 2°56.017 3.2 182 15.5 101580 82
2004-07-05 06:16:47 51°13.624 2°56.011 3.9 178 15.5 101580 82
2004-07-05 06:16:53 51°13.626 2°56.001 3 187 15.5 101580 82
2004-07-05 06:16:57 51°13.628 2°55.994 3.8 179 15.5 101580 82
2004-07-05 06:17:03 51°13.632 2°55.984 3.9 185 15.5 101580 82
2004-07-05 06:17:07 51°13.634 2°55.977 3.5 192 15.6 101580 83
2004-07-05 06:17:13 51°13.637 2°55.966 3.3 172 15.6 101580 83
2004-07-05 06:17:18 51°13.64 2°55.958 3.1 212 15.6 101570 83
2004-07-05 06:17:23 51°13.643 2°55.949 4.7 164 15.6 101570 83
2004-07-05 06:17:28 51°13.645 2°55.94 4.5 184 15.7 101580 83
2004-07-05 06:17:33 51°13.648 2°55.93 5.2 180 15.7 101580 83
2004-07-05 06:17:37 51°13.65 2°55.923 4.2 179 15.8 101580 83
2004-07-05 06:17:43 51°13.652 2°55.911 4.6 181 15.8 101580 83
2004-07-05 06:17:48 51°13.655 2°55.901 4.3 192 15.8 101580 82
2004-07-05 06:17:53 51°13.656 2°55.891 3.8 198 15.8 101580 82
2004-07-05 06:17:58 51°13.658 2°55.881 3.1 184 15.8 101580 82
2004-07-05 06:18:03 51°13.66 2°55.872 3.7 173 15.8 101580 82
2004-07-05 06:18:08 51°13.662 2°55.862 5.3 189 15.9 101580 82
2004-07-05 06:18:13 51°13.664 2°55.851 4 185 15.9 101580 82
2004-07-05 06:18:18 51°13.665 2°55.841 4.5 185 15.9 101580 82
2004-07-05 06:18:23 51°13.666 2°55.831 3.8 197 15.9 101580 82
2004-07-05 06:18:28 51°13.667 2°55.821 5.4 201 16 101580 82
2004-07-05 06:18:33 51°13.667 2°55.812 4.2 200 16 101580 82
2004-07-05 06:18:37 51°13.668 2°55.805 4.4 202 16 101580 81
2004-07-05 06:18:43 51°13.668 2°55.795 3.2 203 16 101580 81
2004-07-05 06:18:48 51°13.668 2°55.789 4.2 211 16 101580 81
2004-07-05 06:18:52 51°13.668 2°55.785 3.9 210 16 101580 81
2004-07-05 06:18:57 51°13.668 2°55.782 4.4 224 16 101580 81
2004-07-05 06:19:03 51°13.669 2°55.779 2.7 228 16 101580 81
2004-07-05 06:19:08 51°13.669 2°55.779 2.9 213 16 101580 81
2004-07-05 06:19:13 51°13.67 2°55.78 1.8 247 16 101580 81
2004-07-05 06:19:17 51°13.671 2°55.781 2.6 248 16 101580 80
2004-07-05 06:19:23 51°13.673 2°55.784 2.4 257 16 101580 80
2004-07-05 06:19:27 51°13.675 2°55.786 2.7 277 16 101580 80
2004-07-05 06:19:33 51°13.677 2°55.788 3.1 282 16 101580 80
2004-07-05 06:19:37 51°13.678 2°55.789 2.8 289 15.9 101580 80
2004-07-05 06:19:43 51°13.679 2°55.79 3.4 270 15.9 101580 80
2004-07-05 06:19:44 51°13.679 2°55.79 3.5 289 15.9 101580 80
2004-07-05 06:19:52 51°13.678 2°55.789 3.4 271 15.9 101580 80
2004-07-05 06:19:57 51°13.676 2°55.788 3 292 15.9 101580 80
2004-07-05 06:20:03 51°13.674 2°55.786 3.3 267 15.9 101580 80
2004-07-05 06:20:05 51°13.674 2°55.785 3.4 273 15.9 101580 80
2004-07-05 06:20:13 51°13.669 2°55.782 3.3 269 15.9 101580 80
2004-07-05 06:20:18 51°13.666 2°55.78 3.4 272 15.9 101580 80
2004-07-05 06:20:24 51°13.663 2°55.778 1.7 264 15.9 101580 80
2004-07-05 06:20:28 51°13.661 2°55.776 3.1 268 15.9 101580 80
2004-07-05 06:20:33 51°13.659 2°55.775 1.4 288 15.9 101580 80
2004-07-05 06:20:37 51°13.659 2°55.775 1.6 311 15.9 101580 80
2004-07-05 06:20:43 51°13.659 2°55.775 2.1 324 15.9 101580 80
2004-07-05 06:20:47 51°13.66 2°55.775 2.8 330 15.9 101580 80
2004-07-05 06:20:53 51°13.663 2°55.774 4.5 33 15.9 101580 80
2004-07-05 06:20:57 51°13.665 2°55.773 3.7 319 15.9 101580 80
2004-07-05 06:21:03 51°13.669 2°55.771 4.8 35 15.9 101580 80
2004-07-05 06:21:07 51°13.672 2°55.769 4.7 347 15.9 101580 80
2004-07-05 06:21:13 51°13.678 2°55.765 4.2 351 15.9 101580 80
2004-07-05 06:21:18 51°13.683 2°55.761 4.7 346 15.9 101580 80
2004-07-05 06:21:23 51°13.689 2°55.756 4.2 352 15.9 101580 80
2004-07-05 06:21:27 51°13.693 2°55.751 4.9 352 15.9 101580 80
2004-07-05 06:21:33 51°13.7 2°55.743 6.4 357 15.9 101580 80
2004-07-05 06:21:35 51°13.703 2°55.74 6.2 357 15.9 101580 80
2004-07-05 06:21:42 51°13.712 2°55.731 7.3 348 15.9 101580 80
2004-07-05 06:21:48 51°13.72 2°55.724 6.9 350 15.9 101580 80
2004-07-05 06:21:52 51°13.726 2°55.719 6.1 347 15.9 101580 80
2004-07-05 06:21:56 51°13.732 2°55.713 5.2 346 15.9 101570 80
2004-07-05 06:22:01 51°13.74 2°55.706 6.1 3 15.9 101570 80
2004-07-05 06:22:08 51°13.751 2°55.697 8.1 347 15.9 101580 80
2004-07-05 06:22:13 51°13.759 2°55.69 7 344 15.9 101580 80
2004-07-05 06:22:17 51°13.766 2°55.685 6.4 351 15.9 101570 80
2004-07-05 06:22:23 51°13.776 2°55.676 5.3 343 15.9 101570 80
2004-07-05 06:22:27 51°13.782 2°55.67 6 351 15.8 101580 80
2004-07-05 06:22:33 51°13.792 2°55.661 4.6 7 15.8 101580 80
2004-07-05 06:22:37 51°13.799 2°55.656 5.5 4 15.8 101570 80
2004-07-05 06:22:42 51°13.808 2°55.649 5.5 359 15.8 101570 80
2004-07-05 06:22:47 51°13.817 2°55.642 6.5 358 15.8 101570 80
2004-07-05 06:22:52 51°13.826 2°55.635 6.4 351 15.8 101570 80
2004-07-05 06:22:57 51°13.835 2°55.628 6.2 357 15.8 101580 80
2004-07-05 06:23:03 51°13.845 2°55.619 5.4 346 15.8 101580 80
2004-07-05 06:23:08 51°13.854 2°55.612 5.6 344 15.8 101580 80
2004-07-05 06:23:13 51°13.864 2°55.605 6.3 3 15.8 101580 80
2004-07-05 06:23:17 51°13.872 2°55.6 7 355 15.8 101580 80
2004-07-05 06:23:23 51°13.884 2°55.593 6.9 353 15.8 101580 80
2004-07-05 06:23:27 51°13.892 2°55.588 6.8 346 15.8 101570 80
2004-07-05 06:23:33 51°13.904 2°55.58 6.5 342 15.8 101570 80
2004-07-05 06:23:36 51°13.91 2°55.576 6.8 337 15.8 101580 80
2004-07-05 06:23:43 51°13.924 2°55.567 5.6 335 15.8 101580 80
2004-07-05 06:23:48 51°13.935 2°55.561 6.4 339 15.7 101580 80
2004-07-05 06:23:53 51°13.945 2°55.555 6.4 347 15.7 101580 80
2004-07-05 06:23:57 51°13.953 2°55.55 5.8 347 15.7 101580 80
2004-07-05 06:24:03 51°13.966 2°55.542 6.7 344 15.7 101580 80
2004-07-05 06:24:07 51°13.974 2°55.537 6.6 339 15.7 101570 80
2004-07-05 06:24:10 51°13.98 2°55.534 6.1 356 15.7 101570 80
2004-07-05 06:24:17 51°13.995 2°55.525 5 343 15.7 101580 80
2004-07-05 06:24:23 51°14.007 2°55.518 6.1 348 15.7 101580 80
2004-07-05 06:24:27 51°14.016 2°55.513 6.5 350 15.7 101570 80
2004-07-05 06:24:32 51°14.027 2°55.507 6.1 344 15.7 101570 80
2004-07-05 06:24:37 51°14.037 2°55.501 8.4 344 15.7 101580 81
2004-07-05 06:24:43 51°14.049 2°55.492 8.7 346 15.7 101580 81
2004-07-05 06:24:47 51°14.058 2°55.487 8.6 348 15.7 101580 81
2004-07-05 06:24:53 51°14.071 2°55.478 8 344 15.7 101580 81
2004-07-05 06:24:57 51°14.079 2°55.472 8.1 350 15.7 101580 81
2004-07-05 06:25:03 51°14.092 2°55.463 9.3 340 15.7 101580 81
2004-07-05 06:25:07 51°14.101 2°55.458 8.4 342 15.7 101570 81
2004-07-05 06:25:12 51°14.113 2°55.45 8.2 343 15.7 101570 81
2004-07-05 06:25:17 51°14.124 2°55.441 8.6 344 15.7 101570 81
2004-07-05 06:25:23 51°14.137 2°55.43 9.9 346 15.7 101570 81
2004-07-05 06:25:27 51°14.146 2°55.422 9.8 358 15.7 101570 81
2004-07-05 06:25:33 51°14.159 2°55.41 9 354 15.7 101570 81
2004-07-05 06:25:37 51°14.169 2°55.401 9.9 349 15.7 101560 81
2004-07-05 06:25:43 51°14.182 2°55.387 8.8 2 15.7 101560 81
2004-07-05 06:25:47 51°14.192 2°55.377 9.1 355 15.7 101570 81
2004-07-05 06:25:50 51°14.198 2°55.369 10.6 351 15.7 101570 81
2004-07-05 06:25:57 51°14.214 2°55.349 10 354 15.7 101560 81
2004-07-05 06:26:03 51°14.227 2°55.33 9.5 354 15.7 101560 81
2004-07-05 06:26:08 51°14.238 2°55.314 9 348 15.7 101560 81
2004-07-05 06:26:12 51°14.246 2°55.301 10.3 353 15.7 101560 81
2004-07-05 06:26:23 51°14.268 2°55.262 10.4 359 15.7 101570 81
2004-07-05 06:26:28 51°14.277 2°55.244 10.4 357 15.7 101560 81
2004-07-05 06:26:33 51°14.287 2°55.224 10.3 359 15.7 101560 81
2004-07-05 06:26:37 51°14.294 2°55.209 10.4 3 15.7 101570 81
2004-07-05 06:26:43 51°14.305 2°55.185 10.9 359 15.7 101570 81
2004-07-05 06:26:48 51°14.314 2°55.164 11.4 356 15.7 101560 81
2004-07-05 06:26:53 51°14.324 2°55.144 11.3 1 15.7 101560 81
2004-07-05 06:26:57 51°14.331 2°55.127 10.3 3 15.7 101560 81
2004-07-05 06:27:03 51°14.341 2°55.101 10.3 3 15.7 101560 81
2004-07-05 06:27:08 51°14.35 2°55.079 10.3 3 15.7 101570 81
2004-07-05 06:27:11 51°14.356 2°55.066 10.4 2 15.7 101570 81
2004-07-05 06:27:21 51°14.375 2°55.023 11   15.7 101570 81
2004-07-05 06:27:27 51°14.387 2°54.997 11.6 1 15.7 101560 82
2004-07-05 06:27:31 51°14.395 2°54.98 10.4 2 15.7 101560 82
2004-07-05 06:27:37 51°14.406 2°54.952 10.7 2 15.6 101560 81
2004-07-05 06:27:41 51°14.413 2°54.933 11.3 4 15.6 101560 81
2004-07-05 06:27:46 51°14.421 2°54.909 10.8 359 15.6 101560 81
2004-07-05 06:27:51 51°14.429 2°54.884 10.8   15.6 101560 81
2004-07-05 06:27:55 51°14.436 2°54.864 11.4 360 15.6 101560 81
2004-07-05 06:28:01 51°14.446 2°54.834 11.8 4 15.6 101560 81
2004-07-05 06:28:07 51°14.457 2°54.806 12.1 3 15.6 101570 81
2004-07-05 06:28:12 51°14.465 2°54.781 11.5 2 15.6 101570 81
2004-07-05 06:28:15 51°14.47 2°54.766 11.5 3 15.6 101570 82
2004-07-05 06:28:21 51°14.478 2°54.735 11.1 6 15.6 101570 82
2004-07-05 06:28:27 51°14.486 2°54.703 10.9 14 15.6 101570 81
2004-07-05 06:28:32 51°14.49 2°54.676 11.4 11 15.6 101570 81
2004-07-05 06:28:36 51°14.493 2°54.654 10.9 13 15.6 101560 81
2004-07-05 06:28:41 51°14.495 2°54.626 10.2 16 15.6 101560 81
2004-07-05 06:28:46 51°14.496 2°54.6 10.9 18 15.6 101560 81
2004-07-05 06:28:52 51°14.497 2°54.57 10.6 18 15.6 101560 81
2004-07-05 06:28:56 51°14.496 2°54.552 10.2 23 15.6 101570 81
2004-07-05 06:29:01 51°14.494 2°54.531 9.4 24 15.6 101570 81
2004-07-05 06:29:07 51°14.492 2°54.507 9.2 19 15.6 101570 81
2004-07-05 06:29:12 51°14.49 2°54.49 9.7 23 15.6 101570 81
2004-07-05 06:29:15 51°14.488 2°54.48 8.8 27 15.6 101570 81
2004-07-05 06:29:21 51°14.485 2°54.46 8.6 26 15.6 101570 81
2004-07-05 06:29:26 51°14.483 2°54.445 8.6 27 15.6 101570 81
2004-07-05 06:29:32 51°14.48 2°54.429 8.3 24 15.6 101570 81
2004-07-05 06:29:35 51°14.478 2°54.42 7.7 26 15.6 101570 81
2004-07-05 06:29:41 51°14.475 2°54.405 7.3 28 15.6 101570 81
2004-07-05 06:29:47 51°14.472 2°54.39 7.5 32 15.6 101570 81
2004-07-05 06:29:52 51°14.47 2°54.378 7.2 28 15.6 101570 81
2004-07-05 06:29:57 51°14.468 2°54.367 7.3 27 15.6 101570 81
2004-07-05 06:30:00 51°14.467 2°54.36 7.3 28 15.6 101570 81
2004-07-05 06:30:06 51°14.464 2°54.347 6.6 30 15.6 101580 81
2004-07-05 06:30:12 51°14.462 2°54.335 6.8 31 15.6 101580 81
2004-07-05 06:30:16 51°14.46 2°54.327 7.3 33 15.5 101580 81
2004-07-05 06:30:21 51°14.458 2°54.317 7.5 38 15.5 101580 81
2004-07-05 06:30:27 51°14.456 2°54.306 7.3 35 15.6 101580 81
2004-07-05 06:30:31 51°14.454 2°54.299 7 38 15.6 101580 81
2004-07-05 06:30:37 51°14.452 2°54.288 6.5 34 15.6 101580 81
2004-07-05 06:30:41 51°14.451 2°54.281 6.7 34 15.6 101580 81
2004-07-05 06:30:47 51°14.449 2°54.27 6.8 32 15.5 101580 81
2004-07-05 06:30:51 51°14.447 2°54.264 6.8 33 15.5 101580 81
2004-07-05 06:30:56 51°14.445 2°54.255 6.7 31 15.5 101580 81
2004-07-05 06:31:01 51°14.444 2°54.247 6.8 32 15.5 101580 81
2004-07-05 06:31:07 51°14.442 2°54.238 6.6 31 15.5 101580 81
2004-07-05 06:31:11 51°14.441 2°54.232 6.8 32 15.5 101580 81
2004-07-05 06:31:16 51°14.439 2°54.224 7 30 15.5 101580 81
2004-07-05 06:31:21 51°14.437 2°54.217 6.9 31 15.5 101580 81
2004-07-05 06:31:27 51°14.436 2°54.208 6.6 30 15.5 101580 81
2004-07-05 06:31:31 51°14.434 2°54.202 6.3 29 15.5 101580 81
2004-07-05 06:31:36 51°14.433 2°54.195 6.1 29 15.5 101580 81
2004-07-05 06:31:41 51°14.431 2°54.189 6.5 27 15.5 101580 81
2004-07-05 06:31:47 51°14.43 2°54.181 6.5 28 15.5 101580 81
2004-07-05 06:31:51 51°14.429 2°54.175 6.6 28 15.5 101580 81
2004-07-05 06:31:56 51°14.427 2°54.169 6.3 29 15.5 101580 81
2004-07-05 06:32:01 51°14.426 2°54.163 6.4 30 15.5 101580 81
2004-07-05 06:32:07 51°14.425 2°54.155 6.7 28 15.4 101580 81
2004-07-05 06:32:12 51°14.423 2°54.149 6.5 28 15.4 101580 81
2004-07-05 06:32:15 51°14.423 2°54.145 6.7 29 15.4 101590 81
2004-07-05 06:32:25 51°14.42 2°54.133 6.6 25 15.4 101590 81
2004-07-05 06:32:31 51°14.418 2°54.123 6.7 27 15.4 101590 81
2004-07-05 06:32:36 51°14.417 2°54.113 7.5 29 15.5 101580 81
2004-07-05 06:32:40 51°14.415 2°54.104 8 31 15.5 101580 81
2004-07-05 06:32:45 51°14.412 2°54.092 7.8 32 15.4 101580 81
2004-07-05 06:32:51 51°14.408 2°54.076 8.1 33 15.4 101580 81
2004-07-05 06:32:55 51°14.405 2°54.065 8.2 35 15.5 101580 81
2004-07-05 06:33:01 51°14.4 2°54.047 8.1 34 15.5 101580 81
2004-07-05 06:33:05 51°14.396 2°54.034 8.4 34 15.4 101580 81
2004-07-05 06:33:11 51°14.389 2°54.014 8.9 37 15.4 101580 81
2004-07-05 06:33:16 51°14.383 2°53.997 9 36 15.4 101580 81
2004-07-05 06:33:20 51°14.377 2°53.982 9.7 39 15.4 101580 81
2004-07-05 06:33:24 51°14.372 2°53.967 9.4 36 15.4 101580 81
2004-07-05 06:33:31 51°14.361 2°53.939 9.9 38 15.4 101580 81
2004-07-05 06:33:35 51°14.354 2°53.922 9.7 33 15.4 101580 81
2004-07-05 06:33:40 51°14.345 2°53.9 10.7 35 15.4 101580 81
2004-07-05 06:33:43 51°14.339 2°53.886 10.5 34 15.4 101580 81
2004-07-05 06:33:51 51°14.323 2°53.848 10.5 34 15.4 101580 81
2004-07-05 06:33:55 51°14.315 2°53.829 11 32 15.4 101570 81
2004-07-05 06:33:59 51°14.307 2°53.809 11.3 31 15.4 101570 81
2004-07-05 06:34:05 51°14.294 2°53.778 11.1 32 15.4 101580 81
2004-07-05 06:34:09 51°14.286 2°53.758 11.1 29 15.4 101580 81
2004-07-05 06:34:15 51°14.274 2°53.727 11.3 31 15.4 101570 81
2004-07-05 06:34:21 51°14.261 2°53.695 11.3 28 15.4 101570 81
2004-07-05 06:34:24 51°14.255 2°53.679 11.1 31 15.4 101580 81
2004-07-05 06:34:29 51°14.244 2°53.653 11 28 15.4 101580 81
2004-07-05 06:34:36 51°14.23 2°53.615 11.2 32 15.4 101580 82
2004-07-05 06:34:40 51°14.221 2°53.594 11.9 29 15.4 101580 82
2004-07-05 06:34:43 51°14.215 2°53.578 11.9 30 15.4 101580 82
2004-07-05 06:34:51 51°14.198 2°53.535 11.7 31 15.4 101580 82
2004-07-05 06:34:55 51°14.189 2°53.514 11.6 27 15.4 101580 82
2004-07-05 06:35:03 51°14.172 2°53.472 12 27 15.4 101580 82
2004-07-05 06:35:11 51°14.155 2°53.429 11.6 27 15.4 101580 82
2004-07-05 06:35:15 51°14.146 2°53.408 11.2 27 15.4 101580 82
2004-07-05 06:35:21 51°14.132 2°53.377 11.3 29 15.4 101580 82
2004-07-05 06:35:25 51°14.124 2°53.356 11.2 25 15.4 101580 82
2004-07-05 06:35:31 51°14.11 2°53.324 11.6 27 15.4 101580 82
2004-07-05 06:35:35 51°14.102 2°53.303 11.5 27 15.4 101580 82
2004-07-05 06:35:41 51°14.089 2°53.271 11.4 26 15.4 101580 82
2004-07-05 06:35:45 51°14.08 2°53.25 11.7 26 15.5 101580 82
2004-07-05 06:35:51 51°14.066 2°53.219 11.8 30 15.5 101580 82
2004-07-05 06:35:55 51°14.057 2°53.198 10.8 31 15.5 101580 82
2004-07-05 06:36:01 51°14.043 2°53.167 11.2 31 15.5 101580 82
2004-07-05 06:36:05 51°14.034 2°53.146 11.2 30 15.5 101580 82
2004-07-05 06:36:11 51°14.021 2°53.114 11.4 26 15.5 101580 82
2004-07-05 06:36:15 51°14.012 2°53.093 11.2 29 15.5 101580 82
2004-07-05 06:36:21 51°13.999 2°53.061 11.2 27 15.5 101580 82
2004-07-05 06:36:25 51°13.99 2°53.04 11.8 24 15.5 101580 82
2004-07-05 06:36:31 51°13.977 2°53.008 11.8 28 15.5 101580 82
2004-07-05 06:36:35 51°13.969 2°52.987 11.2 23 15.5 101580 82
2004-07-05 06:36:41 51°13.956 2°52.954 11.6 25 15.5 101580 82
2004-07-05 06:36:45 51°13.948 2°52.933 11.9 30 15.5 101580 82
2004-07-05 06:36:51 51°13.935 2°52.901 11.8 26 15.5 101580 82
2004-07-05 06:36:56 51°13.924 2°52.874 12 26 15.5 101580 82
2004-07-05 06:37:00 51°13.916 2°52.853 11.8 27 15.5 101580 82
2004-07-05 06:37:05 51°13.905 2°52.826 12.1 28 15.5 101580 82
2004-07-05 06:37:11 51°13.892 2°52.794 12 27 15.5 101580 82
2004-07-05 06:37:16 51°13.881 2°52.768 11.7 30 15.5 101580 82
2004-07-05 06:37:21 51°13.87 2°52.741 11.5 29 15.5 101580 82
2004-07-05 06:37:25 51°13.861 2°52.72 11.2 28 15.5 101580 82
2004-07-05 06:37:31 51°13.848 2°52.688 11.6 31 15.5 101580 82
2004-07-05 06:37:35 51°13.839 2°52.667 11.7 31 15.5 101580 82
2004-07-05 06:37:41 51°13.825 2°52.636 11.7 30 15.5 101580 82
2004-07-05 06:37:45 51°13.816 2°52.615 11.8 30 15.4 101580 82
2004-07-05 06:37:51 51°13.803 2°52.584 11.1 30 15.4 101580 82
2004-07-05 06:37:56 51°13.792 2°52.557 12.1 30 15.4 101580 81
2004-07-05 06:37:59 51°13.785 2°52.541 11.4 31 15.4 101580 81
2004-07-05 06:38:05 51°13.772 2°52.51 12.1 32 15.4 101580 81
2004-07-05 06:38:10 51°13.761 2°52.483 10.9 28 15.4 101580 81
2004-07-05 06:38:15 51°13.75 2°52.457 10.8 26 15.4 101580 82
2004-07-05 06:38:21 51°13.736 2°52.426 11.5 28 15.4 101580 82
2004-07-05 06:38:25 51°13.728 2°52.405 11.9 27 15.4 101580 82
2004-07-05 06:38:31 51°13.714 2°52.373 12 31 15.4 101580 82
2004-07-05 06:38:35 51°13.706 2°52.352 11.8 27 15.5 101580 82
2004-07-05 06:38:39 51°13.697 2°52.33 12.2 27 15.5 101580 82
2004-07-05 06:38:45 51°13.685 2°52.298 12.2 25 15.5 101590 82
2004-07-05 06:38:51 51°13.673 2°52.264 12.4 29 15.5 101590 82
2004-07-05 06:38:55 51°13.664 2°52.243 11.7 28 15.5 101580 82
2004-07-05 06:38:59 51°13.656 2°52.221 11.2 27 15.5 101580 82
2004-07-05 06:39:05 51°13.644 2°52.188 12.1 27 15.5 101580 82
2004-07-05 06:39:11 51°13.632 2°52.156 11.8 27 15.5 101580 82
2004-07-05 06:39:15 51°13.623 2°52.134 12.1 28 15.5 101580 82
2004-07-05 06:39:25 51°13.603 2°52.08 10.9 24 15.5 101580 82
2004-07-05 06:39:31 51°13.591 2°52.047 11.9 24 15.5 101580 82
2004-07-05 06:39:36 51°13.581 2°52.02 12.2 23 15.5 101580 82
2004-07-05 06:39:40 51°13.573 2°51.998 11.6 25 15.5 101580 82
2004-07-05 06:39:45 51°13.563 2°51.971 11.8 26 15.5 101580 82
2004-07-05 06:39:49 51°13.555 2°51.949 11.7 24 15.5 101580 82
2004-07-05 06:39:55 51°13.543 2°51.916 12.5 25 15.5 101590 82
2004-07-05 06:39:59 51°13.535 2°51.894 12 25 15.5 101590 82
2004-07-05 06:40:05 51°13.523 2°51.862 11.8 27 15.5 101580 82
2004-07-05 06:40:11 51°13.511 2°51.829 11.9 25 15.5 101580 82
2004-07-05 06:40:14 51°13.504 2°51.813 11.9 27 15.5 101590 82
2004-07-05 06:40:19 51°13.494 2°51.785 11.6 26 15.5 101590 82
2004-07-05 06:40:25 51°13.482 2°51.753 12.1 26 15.5 101570 82
2004-07-05 06:40:30 51°13.472 2°51.726 11.6 26 15.5 101570 82
2004-07-05 06:40:35 51°13.462 2°51.698 12 25 15.5 101590 82
2004-07-05 06:40:41 51°13.449 2°51.666 11.5 27 15.5 101590 82
2004-07-05 06:40:45 51°13.441 2°51.644 11.8 27 15.5 101580 82
2004-07-05 06:40:51 51°13.429 2°51.611 11.5 25 15.5 101580 82
2004-07-05 06:40:55 51°13.421 2°51.589 11.4 26 15.5 101580 82
2004-07-05 06:41:01 51°13.409 2°51.556 11.6 24 15.5 101580 82
2004-07-05 06:41:05 51°13.401 2°51.534 12.3 24 15.5 101590 82
2004-07-05 06:41:09 51°13.393 2°51.513 11.5 25 15.5 101590 82
2004-07-05 06:41:15 51°13.381 2°51.48 11.5 24 15.5 101580 82
2004-07-05 06:41:21 51°13.369 2°51.447 11.8 26 15.5 101580 82
2004-07-05 06:41:23 51°13.365 2°51.436 11.6 26 15.5 101580 82
2004-07-05 06:41:33 51°13.345 2°51.381 11.3 25 15.5 101580 82
2004-07-05 06:41:38 51°13.335 2°51.354 11.5 24 15.5 101590 82
2004-07-05 06:41:44 51°13.323 2°51.321 11.4 28 15.5 101590 82
2004-07-05 06:41:48 51°13.315 2°51.3 11.6 28 15.5 101590 82
2004-07-05 06:41:53 51°13.304 2°51.272 11.6 22 15.5 101590 82
2004-07-05 06:41:59 51°13.292 2°51.239 11.6 23 15.5 101580 81
2004-07-05 06:42:04 51°13.282 2°51.212 12 26 15.5 101580 81
2004-07-05 06:42:07 51°13.276 2°51.196 11.9 28 15.5 101590 81
2004-07-05 06:42:13 51°13.263 2°51.163 11.3 26 15.5 101590 81
2004-07-05 06:42:19 51°13.251 2°51.13 11.8 26 15.5 101580 81
2004-07-05 06:42:24 51°13.242 2°51.103 12.4 25 15.5 101580 81
2004-07-05 06:42:28 51°13.233 2°51.081 12.1 24 15.5 101590 81
2004-07-05 06:42:33 51°13.223 2°51.053 11.6 25 15.5 101590 81
2004-07-05 06:42:39 51°13.211 2°51.021 11.9 24 15.5 101590 82
2004-07-05 06:42:44 51°13.201 2°50.993 12.4 24 15.5 101590 82
2004-07-05 06:42:48 51°13.193 2°50.971 12.3 23 15.5 101590 82
2004-07-05 06:42:53 51°13.183 2°50.944 11.6 26 15.5 101590 82
2004-07-05 06:42:59 51°13.17 2°50.911 11.9 28 15.5 101580 81
2004-07-05 06:43:04 51°13.16 2°50.884 12.1 26 15.5 101580 81
2004-07-05 06:43:09 51°13.15 2°50.856 12.1 26 15.5 101580 81
2004-07-05 06:43:12 51°13.144 2°50.84 11.7 25 15.5 101580 81
2004-07-05 06:43:19 51°13.129 2°50.802 12.3 24 15.5 101590 82
2004-07-05 06:43:23 51°13.121 2°50.78 11.1 24 15.5 101590 82
2004-07-05 06:43:29 51°13.109 2°50.748 10.8 23 15.5 101590 82
2004-07-05 06:43:33 51°13.101 2°50.726 11.4 22 15.5 101590 82
2004-07-05 06:43:38 51°13.09 2°50.699 11.4 24 15.5 101590 82
2004-07-05 06:43:44 51°13.078 2°50.666 11.4 21 15.5 101590 82
2004-07-05 06:43:47 51°13.072 2°50.649 12.2 23 15.5 101580 81
2004-07-05 06:43:53 51°13.059 2°50.617 12.9 24 15.5 101580 81
2004-07-05 06:43:59 51°13.047 2°50.584 12 25 15.5 101590 82
2004-07-05 06:44:03 51°13.039 2°50.562 11.8 26 15.5 101590 82
2004-07-05 06:44:09 51°13.027 2°50.529 11.6 27 15.5 101590 82
2004-07-05 06:44:12 51°13.021 2°50.512 11.2 25 15.5 101590 82
2004-07-05 06:44:19 51°13.007 2°50.474 11.4 23 15.5 101590 82
2004-07-05 06:44:23 51°12.999 2°50.452 12.1 23 15.5 101590 82
2004-07-05 06:44:29 51°12.987 2°50.419 11.7 22 15.5 101590 82
2004-07-05 06:44:33 51°12.979 2°50.397 11.8 24 15.5 101590 82
2004-07-05 06:44:39 51°12.966 2°50.364 11.4 22 15.5 101590 81
2004-07-05 06:44:43 51°12.959 2°50.342 11.3 21 15.5 101590 81
2004-07-05 06:44:47 51°12.95 2°50.32 12.2 19 15.5 101590 82
2004-07-05 06:44:53 51°12.939 2°50.286 11.7 19 15.5 101590 82
2004-07-05 06:44:59 51°12.926 2°50.253 12.7 20 15.5 101590 81
2004-07-05 06:45:04 51°12.916 2°50.226 11.9 20 15.5 101590 81
2004-07-05 06:45:07 51°12.91 2°50.21 12.3 21 15.5 101600 82
2004-07-05 06:45:13 51°12.898 2°50.177 11.5 19 15.5 101600 82
2004-07-05 06:45:19 51°12.886 2°50.144 11.7 22 15.5 101600 82
2004-07-05 06:45:24 51°12.875 2°50.116 12.1 21 15.5 101600 82
2004-07-05 06:45:28 51°12.867 2°50.094 12.2 21 15.6 101600 81
2004-07-05 06:45:33 51°12.857 2°50.067 11.6 23 15.6 101600 81
2004-07-05 06:45:39 51°12.844 2°50.034 12.1 20 15.5 101600 81
2004-07-05 06:45:44 51°12.834 2°50.007 11.6 21 15.5 101600 81
2004-07-05 06:45:48 51°12.826 2°49.985 11.9 21 15.6 101600 81
2004-07-05 06:45:54 51°12.814 2°49.951 11.3 22 15.6 101600 81
2004-07-05 06:45:57 51°12.809 2°49.935 11.5 24 15.5 101590 81
2004-07-05 06:46:04 51°12.795 2°49.896 12.5 23 15.5 101590 81
2004-07-05 06:46:08 51°12.787 2°49.874 12 24 15.5 101590 81
2004-07-05 06:46:13 51°12.777 2°49.846 11.2 27 15.5 101590 81
2004-07-05 06:46:19 51°12.765 2°49.813 11.6 24 15.5 101600 81
2004-07-05 06:46:24 51°12.754 2°49.786 11.7 28 15.5 101600 81
2004-07-05 06:46:29 51°12.744 2°49.758 11.6 28 15.5 101600 81
2004-07-05 06:46:33 51°12.736 2°49.737 11.8 23 15.5 101600 81
2004-07-05 06:46:39 51°12.723 2°49.704 11.7 27 15.6 101600 81
2004-07-05 06:46:44 51°12.713 2°49.677 11.7 26 15.6 101600 81
2004-07-05 06:46:48 51°12.705 2°49.655 11.8 22 15.6 101590 81
2004-07-05 06:46:50 51°12.701 2°49.644 12.1 23 15.6 101590 81
2004-07-05 06:46:59 51°12.683 2°49.594 12.3 23 15.6 101590 82
2004-07-05 06:47:04 51°12.673 2°49.567 11.6 20 15.6 101590 82
2004-07-05 06:47:09 51°12.663 2°49.539 11.5 23 15.6 101590 81
2004-07-05 06:47:13 51°12.656 2°49.517 12.2 22 15.6 101590 81
2004-07-05 06:47:19 51°12.643 2°49.484 12 24 15.6 101600 81
2004-07-05 06:47:24 51°12.633 2°49.456 11.9 23 15.6 101600 81
2004-07-05 06:47:29 51°12.623 2°49.429 11.9 24 15.6 101590 81
2004-07-05 06:47:33 51°12.615 2°49.407 11.7 27 15.6 101590 81
2004-07-05 06:47:38 51°12.605 2°49.38 11.9 28 15.5 101600 81
2004-07-05 06:47:44 51°12.592 2°49.347 11.5 25 15.5 101600 81
2004-07-05 06:47:49 51°12.582 2°49.319 11.3 26 15.5 101600 81
2004-07-05 06:47:53 51°12.575 2°49.297 12 24 15.5 101600 81
2004-07-05 06:47:59 51°12.563 2°49.264 11 23 15.5 101590 81
2004-07-05 06:48:04 51°12.553 2°49.236 11.7 18 15.5 101590 81
2004-07-05 06:48:07 51°12.547 2°49.219 11.3 23 15.5 101590 81
2004-07-05 06:48:13 51°12.535 2°49.186 12.5 26 15.5 101590 81
2004-07-05 06:48:19 51°12.523 2°49.153 12.6 25 15.5 101600 81
2004-07-05 06:48:23 51°12.515 2°49.131 12 26 15.5 101600 81
2004-07-05 06:48:29 51°12.503 2°49.098 12.3 28 15.6 101600 81
2004-07-05 06:48:33 51°12.495 2°49.076 11.7 22 15.6 101600 81
2004-07-05 06:48:39 51°12.483 2°49.043 12.2 27 15.6 101600 82
2004-07-05 06:48:44 51°12.473 2°49.016 12.1 22 15.6 101600 82
2004-07-05 06:48:48 51°12.465 2°48.994 11.7 23 15.6 101600 82
2004-07-05 06:48:53 51°12.455 2°48.966 12.1 23 15.6 101600 82
2004-07-05 06:48:59 51°12.443 2°48.933 11.9 20 15.6 101600 82
2004-07-05 06:49:04 51°12.433 2°48.906 12.3 23 15.6 101600 82
2004-07-05 06:49:08 51°12.425 2°48.884 12.9 21 15.6 101600 82
2004-07-05 06:49:12 51°12.417 2°48.861 12.1 21 15.6 101600 82
2004-07-05 06:49:18 51°12.405 2°48.828 12.8 23 15.6 101600 82
2004-07-05 06:49:23 51°12.395 2°48.801 12.9 25 15.6 101600 82
2004-07-05 06:49:29 51°12.383 2°48.768 12.5 24 15.6 101600 82
2004-07-05 06:49:34 51°12.373 2°48.741 13.1 25 15.6 101600 82
2004-07-05 06:49:39 51°12.363 2°48.713 12.3 24 15.6 101600 82
2004-07-05 06:49:43 51°12.354 2°48.692 11.9 25 15.6 101600 82
2004-07-05 06:49:47 51°12.346 2°48.669 11.8 23 15.6 101590 82
2004-07-05 06:49:53 51°12.334 2°48.637 13.2 21 15.6 101590 82
2004-07-05 06:49:59 51°12.322 2°48.603 13 20 15.6 101600 82
2004-07-05 06:50:03 51°12.314 2°48.582 13.3 22 15.6 101600 82
2004-07-05 06:50:08 51°12.304 2°48.554 12.5 22 15.6 101600 82
2004-07-05 06:50:13 51°12.294 2°48.526 12.5 24 15.6 101600 82
2004-07-05 06:50:18 51°12.284 2°48.498 12.7 22 15.6 101600 82
2004-07-05 06:50:24 51°12.272 2°48.465 13.6 22 15.6 101600 82
2004-07-05 06:50:28 51°12.264 2°48.443 12.8 22 15.7 101590 83
2004-07-05 06:50:33 51°12.254 2°48.416 12.9 25 15.7 101590 83
2004-07-05 06:50:39 51°12.242 2°48.383 12.8 26 15.7 101600 83
2004-07-05 06:50:44 51°12.231 2°48.356 12 23 15.7 101600 83
2004-07-05 06:50:49 51°12.221 2°48.329 13.1 25 15.7 101600 83
2004-07-05 06:50:53 51°12.213 2°48.307 12.9 20 15.7 101600 83
2004-07-05 06:50:59 51°12.201 2°48.274 12.9 25 15.6 101600 83
2004-07-05 06:51:04 51°12.191 2°48.246 12.6 25 15.6 101600 83
2004-07-05 06:51:08 51°12.183 2°48.224 12.8 24 15.6 101600 83
2004-07-05 06:51:13 51°12.173 2°48.197 12.5 21 15.6 101600 83
2004-07-05 06:51:19 51°12.161 2°48.164 14.2 24 15.6 101600 83
2004-07-05 06:51:23 51°12.153 2°48.141 13.1 22 15.6 101600 83
2004-07-05 06:51:29 51°12.141 2°48.108 12.4 25 15.6 101600 83
2004-07-05 06:51:34 51°12.132 2°48.08 13.1 22 15.6 101600 83
2004-07-05 06:51:36 51°12.128 2°48.069 12.3 26 15.6 101600 83
2004-07-05 06:51:43 51°12.114 2°48.03 12.4 29 15.6 101600 83
2004-07-05 06:51:49 51°12.102 2°47.997 12.1 23 15.6 101600 83
2004-07-05 06:51:53 51°12.094 2°47.974 12 26 15.6 101600 83
2004-07-05 06:51:58 51°12.084 2°47.947 12.3 24 15.6 101610 83
2004-07-05 06:52:04 51°12.072 2°47.914 13 24 15.6 101610 83
2004-07-05 06:52:08 51°12.064 2°47.892 13.2 21 15.6 101610 83
2004-07-05 06:52:12 51°12.057 2°47.87 12.9 25 15.6 101610 83
2004-07-05 06:52:19 51°12.043 2°47.83 13.2 23 15.6 101610 83
2004-07-05 06:52:23 51°12.036 2°47.808 13 26 15.6 101610 83
2004-07-05 06:52:29 51°12.026 2°47.773 12.4 24 15.6 101600 83
2004-07-05 06:52:32 51°12.021 2°47.756 12.5 26 15.6 101600 83
2004-07-05 06:52:38 51°12.01 2°47.722 12.9 25 15.6 101610 83
2004-07-05 06:52:44 51°12 2°47.687 12.8 23 15.6 101610 83
2004-07-05 06:52:49 51°11.991 2°47.658 12.1 21 15.6 101600 83
2004-07-05 06:52:53 51°11.985 2°47.635 13.2 22 15.6 101600 83
2004-07-05 06:52:59 51°11.974 2°47.601 13.8 24 15.6 101610 83
2004-07-05 06:53:04 51°11.965 2°47.573 12.8 24 15.6 101610 83
2004-07-05 06:53:08 51°11.958 2°47.55 12.9 24 15.6 101610 83
2004-07-05 06:53:13 51°11.949 2°47.521 13.6 24 15.6 101610 83
2004-07-05 06:53:18 51°11.94 2°47.493 13.6 23 15.6 101610 83
2004-07-05 06:53:23 51°11.931 2°47.464 13.7 24 15.6 101610 83
2004-07-05 06:53:29 51°11.921 2°47.43 13.3 21 15.6 101610 83
2004-07-05 06:53:33 51°11.913 2°47.407 13.2 26 15.6 101610 83
2004-07-05 06:53:39 51°11.903 2°47.373 13.6 24 15.6 101610 83
2004-07-05 06:53:44 51°11.894 2°47.344 13.7 26 15.6 101610 83
2004-07-05 06:53:48 51°11.887 2°47.322 13.1 28 15.6 101610 83
2004-07-05 06:53:53 51°11.878 2°47.293 12.8 27 15.6 101610 83
2004-07-05 06:53:59 51°11.867 2°47.259 13.3 24 15.6 101610 83
2004-07-05 06:54:04 51°11.859 2°47.23 12.1 28 15.6 101610 83
2004-07-05 06:54:08 51°11.851 2°47.208 12.7 24 15.6 101610 82
2004-07-05 06:54:13 51°11.843 2°47.179 13.1 24 15.6 101610 82
2004-07-05 06:54:19 51°11.832 2°47.145 13 23 15.5 101610 82
2004-07-05 06:54:24 51°11.823 2°47.116 12.4 26 15.5 101610 82
2004-07-05 06:54:29 51°11.815 2°47.088 13.3 24 15.6 101610 82
2004-07-05 06:54:34 51°11.806 2°47.059 13.6 25 15.6 101610 82
2004-07-05 06:54:39 51°11.797 2°47.031 13.3 24 15.6 101610 83
2004-07-05 06:54:43 51°11.79 2°47.008 13 26 15.6 101610 83
2004-07-05 06:54:49 51°11.779 2°46.974 12.6 26 15.6 101610 82
2004-07-05 06:54:53 51°11.772 2°46.951 13 23 15.6 101610 82
2004-07-05 06:54:59 51°11.761 2°46.917 13.2 22 15.6 101610 82
2004-07-05 06:55:04 51°11.753 2°46.888 13 29 15.6 101610 82
2004-07-05 06:55:08 51°11.745 2°46.865 12.8 25 15.5 101610 82
2004-07-05 06:55:13 51°11.737 2°46.837 12.5 29 15.5 101610 82
2004-07-05 06:55:19 51°11.726 2°46.803 12.8 28 15.6 101610 82
2004-07-05 06:55:23 51°11.719 2°46.779 13.3 25 15.6 101610 82
2004-07-05 06:55:29 51°11.709 2°46.745 13.6 26 15.6 101610 82
2004-07-05 06:55:33 51°11.702 2°46.722 12.7 23 15.6 101610 82
2004-07-05 06:55:39 51°11.691 2°46.688 12.8 27 15.6 101610 82
2004-07-05 06:55:43 51°11.685 2°46.665 12.6 26 15.6 101610 82
2004-07-05 06:55:49 51°11.674 2°46.63 13.3 27 15.6 101610 82
2004-07-05 06:55:54 51°11.665 2°46.602 13.1 29 15.6 101610 82
2004-07-05 06:55:59 51°11.656 2°46.573 12.9 30 15.6 101610 82
2004-07-05 06:56:04 51°11.648 2°46.545 13.2 26 15.6 101610 82
2004-07-05 06:56:08 51°11.64 2°46.522 12.9 27 15.6 101610 82
2004-07-05 06:56:10 51°11.637 2°46.51 13.4 24 15.6 101610 82
2004-07-05 06:56:18 51°11.623 2°46.464 13.1 23 15.6 101610 82
2004-07-05 06:56:23 51°11.614 2°46.436 13.2 26 15.6 101610 82
2004-07-05 06:56:29 51°11.604 2°46.401 13.1 25 15.6 101610 82
2004-07-05 06:56:33 51°11.597 2°46.378 12.9 24 15.6 101610 82
2004-07-05 06:56:39 51°11.587 2°46.343 14 25 15.6 101610 82
2004-07-05 06:56:41 51°11.583 2°46.332 13.5 28 15.6 101610 82
2004-07-05 06:56:48 51°11.571 2°46.292 13 25 15.6 101610 82
2004-07-05 06:56:51 51°11.566 2°46.274 13.4 25 15.6 101610 82
2004-07-05 06:56:59 51°11.552 2°46.229 12.9 25 15.6 101610 81
2004-07-05 06:57:03 51°11.545 2°46.206 13.3 27 15.6 101610 81
2004-07-05 06:57:09 51°11.534 2°46.172 13.2 29 15.6 101610 82
2004-07-05 06:57:13 51°11.527 2°46.149 13.4 24 15.6 101610 82
2004-07-05 06:57:19 51°11.516 2°46.115 13.2 27 15.6 101610 82
2004-07-05 06:57:24 51°11.508 2°46.086 12.7 26 15.6 101610 82
2004-07-05 06:57:28 51°11.501 2°46.063 13 26 15.6 101610 81
2004-07-05 06:57:33 51°11.492 2°46.035 12.7 30 15.6 101610 81
2004-07-05 06:57:39 51°11.481 2°46 12.6 28 15.6 101610 81
2004-07-05 06:57:44 51°11.472 2°45.972 12.5 25 15.6 101610 81
2004-07-05 06:57:48 51°11.465 2°45.949 13.4 23 15.6 101610 81
2004-07-05 06:57:53 51°11.457 2°45.92 13 27 15.6 101610 81
2004-07-05 06:57:59 51°11.446 2°45.886 13.4 27 15.6 101610 81
2004-07-05 06:58:04 51°11.437 2°45.857 13.6 26 15.6 101610 81
2004-07-05 06:58:08 51°11.43 2°45.834 13.8 26 15.6 101610 82
2004-07-05 06:58:13 51°11.421 2°45.806 13.8 26 15.6 101610 82
2004-07-05 06:58:18 51°11.412 2°45.777 13.6 27 15.6 101610 81
2004-07-05 06:58:24 51°11.402 2°45.743 13.4 28 15.6 101610 81
2004-07-05 06:58:29 51°11.393 2°45.714 13 26 15.6 101610 81
2004-07-05 06:58:33 51°11.386 2°45.691 12.9 26 15.6 101610 81
2004-07-05 06:58:39 51°11.376 2°45.657 12.6 25 15.6 101610 81
2004-07-05 06:58:44 51°11.368 2°45.628 13.5 27 15.6 101610 81
2004-07-05 06:58:48 51°11.361 2°45.605 12.8 26 15.6 101610 81
2004-07-05 06:58:53 51°11.353 2°45.576 12.4 26 15.6 101610 81
2004-07-05 06:58:59 51°11.343 2°45.541 12.5 28 15.6 101610 81
2004-07-05 06:59:04 51°11.334 2°45.512 12.3 26 15.6 101610 81
2004-07-05 06:59:08 51°11.327 2°45.489 12.8 24 15.5 101620 81
2004-07-05 06:59:12 51°11.321 2°45.466 12.7 24 15.5 101620 81
2004-07-05 06:59:19 51°11.309 2°45.425 13.2 24 15.6 101610 81
2004-07-05 06:59:24 51°11.301 2°45.396 13.3 25 15.6 101610 81
2004-07-05 06:59:27 51°11.296 2°45.378 13.3 25 15.6 101610 81
2004-07-05 06:59:33 51°11.287 2°45.343 12.6 24 15.6 101610 81
2004-07-05 06:59:39 51°11.277 2°45.308 13.4 24 15.6 101610 81
2004-07-05 06:59:44 51°11.27 2°45.278 12.9 26 15.6 101610 81
2004-07-05 06:59:49 51°11.262 2°45.249 12.6 22 15.6 101610 81
2004-07-05 06:59:53 51°11.256 2°45.225 14.1 24 15.6 101610 81
2004-07-05 06:59:59 51°11.246 2°45.19 13.7 24 15.6 101610 81
2004-07-05 07:00:04 51°11.238 2°45.161 13.8 26 15.6 101610 81
2004-07-05 07:00:08 51°11.231 2°45.138 12.7 27 15.6 101610 81
2004-07-05 07:00:13 51°11.223 2°45.109 12.4 27 15.6 101610 81
2004-07-05 07:00:19 51°11.213 2°45.075 12.5 21 15.6 101610 81
2004-07-05 07:00:24 51°11.204 2°45.045 13.5 24 15.6 101610 81
2004-07-05 07:00:29 51°11.196 2°45.017 13.9 25 15.6 101610 81
2004-07-05 07:00:34 51°11.188 2°44.987 13.5 24 15.6 101610 81
2004-07-05 07:00:39 51°11.18 2°44.958 13.4 22 15.6 101610 81
2004-07-05 07:00:43 51°11.174 2°44.935 13.3 23 15.6 101610 81
2004-07-05 07:00:48 51°11.166 2°44.905 12.7 23 15.6 101620 81
2004-07-05 07:00:53 51°11.158 2°44.876 13.3 22 15.6 101620 81
2004-07-05 07:00:59 51°11.148 2°44.841 13.5 23 15.6 101620 81
2004-07-05 07:01:04 51°11.14 2°44.812 12.9 22 15.6 101620 81
2004-07-05 07:01:07 51°11.135 2°44.794 12.6 24 15.6 101620 81
2004-07-05 07:01:13 51°11.126 2°44.759 12.2 25 15.6 101620 81
2004-07-05 07:01:19 51°11.116 2°44.724 12.4 25 15.6 101620 81
2004-07-05 07:01:23 51°11.11 2°44.701 13.3 26 15.6 101620 81
2004-07-05 07:01:29 51°11.1 2°44.665 13.6 26 15.6 101620 81
2004-07-05 07:01:31 51°11.097 2°44.654 13.4 25 15.6 101620 81
2004-07-05 07:01:39 51°11.084 2°44.607 13.4 24 15.6 101620 81
2004-07-05 07:01:44 51°11.076 2°44.578 12.8 25 15.6 101620 81
2004-07-05 07:01:49 51°11.068 2°44.548 13.1 27 15.6 101620 81
2004-07-05 07:01:53 51°11.062 2°44.525 12.5 27 15.6 101620 81
2004-07-05 07:01:57 51°11.056 2°44.501 13 28 15.6 101620 80
2004-07-05 07:02:04 51°11.044 2°44.46 13 27 15.6 101620 80
2004-07-05 07:02:08 51°11.038 2°44.437 12.7 30 15.6 101620 80
2004-07-05 07:02:12 51°11.031 2°44.414 12.5 27 15.6 101620 80
2004-07-05 07:02:19 51°11.02 2°44.373 12.7 25 15.6 101620 80
2004-07-05 07:02:24 51°11.012 2°44.343 12.7 25 15.6 101620 80
2004-07-05 07:02:28 51°11.006 2°44.32 13.2 25 15.6 101620 80
2004-07-05 07:02:33 51°10.998 2°44.291 13 26 15.6 101620 80
2004-07-05 07:02:39 51°10.989 2°44.255 12.2 25 15.6 101620 80
2004-07-05 07:02:43 51°10.982 2°44.232 12.7 28 15.6 101620 80
2004-07-05 07:02:49 51°10.973 2°44.196 12.1 27 15.6 101620 81
2004-07-05 07:02:52 51°10.968 2°44.179 12.4 22 15.6 101620 81
2004-07-05 07:02:59 51°10.957 2°44.138 12.1 21 15.6 101620 80
2004-07-05 07:03:04 51°10.949 2°44.109 12.6 22 15.6 101620 80
2004-07-05 07:03:08 51°10.943 2°44.085 12.2 21 15.6 101620 80
2004-07-05 07:03:13 51°10.935 2°44.056 12.4 20 15.6 101620 80
2004-07-05 07:03:19 51°10.925 2°44.021 13.1 22 15.6 101620 80
2004-07-05 07:03:24 51°10.918 2°43.991 13.4 23 15.6 101620 80
2004-07-05 07:03:29 51°10.91 2°43.962 13.2 23 15.6 101630 81
2004-07-05 07:03:33 51°10.904 2°43.939 13.1 25 15.6 101630 81
2004-07-05 07:03:39 51°10.894 2°43.904 13 24 15.6 101620 80
2004-07-05 07:03:43 51°10.888 2°43.88 12.3 27 15.6 101620 80
2004-07-05 07:03:48 51°10.88 2°43.851 12.5 26 15.6 101630 80
2004-07-05 07:03:53 51°10.871 2°43.822 12.3 24 15.6 101630 80
2004-07-05 07:03:59 51°10.861 2°43.787 12.3 26 15.6 101630 80
2004-07-05 07:04:04 51°10.853 2°43.758 12.2 26 15.6 101630 80
2004-07-05 07:04:08 51°10.846 2°43.735 12.5 27 15.6 101620 80
2004-07-05 07:04:13 51°10.838 2°43.705 12.1 26 15.6 101620 80
2004-07-05 07:04:19 51°10.829 2°43.67 12.3 26 15.6 101620 80
2004-07-05 07:04:24 51°10.821 2°43.64 12.7 25 15.6 101620 80
2004-07-05 07:04:28 51°10.815 2°43.617 12.4 25 15.6 101620 80
2004-07-05 07:04:32 51°10.809 2°43.593 12.2 25 15.6 101620 80
2004-07-05 07:04:39 51°10.798 2°43.552 12.4 22 15.6 101630 80
2004-07-05 07:04:44 51°10.791 2°43.523 12.7 26 15.6 101630 80
2004-07-05 07:04:48 51°10.785 2°43.499 13 26 15.6 101620 80
2004-07-05 07:04:53 51°10.777 2°43.47 12.9 29 15.6 101620 80
2004-07-05 07:04:59 51°10.767 2°43.435 12.2 28 15.6 101620 80
2004-07-05 07:05:04 51°10.759 2°43.406 12 24 15.6 101620 80
2004-07-05 07:05:09 51°10.751 2°43.377 12.7 29 15.5 101620 79
2004-07-05 07:05:13 51°10.744 2°43.353 12.6 29 15.5 101620 79
2004-07-05 07:05:19 51°10.735 2°43.318 12.4 27 15.5 101620 79
2004-07-05 07:05:24 51°10.727 2°43.288 11.8 26 15.5 101620 79
2004-07-05 07:05:29 51°10.72 2°43.259 12.2 26 15.5 101630 80
2004-07-05 07:05:33 51°10.714 2°43.235 12.5 27 15.5 101630 80
2004-07-05 07:05:39 51°10.705 2°43.2 12.4 27 15.5 101620 80
2004-07-05 07:05:43 51°10.699 2°43.176 12.3 23 15.5 101620 80
2004-07-05 07:05:49 51°10.689 2°43.141 12.8 23 15.6 101630 80
2004-07-05 07:05:53 51°10.683 2°43.118 12.8 24 15.6 101630 80
2004-07-05 07:05:57 51°10.677 2°43.094 12.2 24 15.6 101630 80
2004-07-05 07:06:04 51°10.666 2°43.053 13.1 23 15.6 101630 80
2004-07-05 07:06:09 51°10.658 2°43.024 13.8 20 15.6 101630 80
2004-07-05 07:06:13 51°10.652 2°43.001 12.7 21 15.6 101630 80
2004-07-05 07:06:19 51°10.642 2°42.966 12.3 23 15.6 101630 80
2004-07-05 07:06:24 51°10.634 2°42.936 12.5 21 15.6 101630 80
2004-07-05 07:06:28 51°10.628 2°42.913 13.1 22 15.6 101630 80
2004-07-05 07:06:33 51°10.62 2°42.884 12.7 22 15.6 101630 80
2004-07-05 07:06:39 51°10.611 2°42.849 12.3 19 15.6 101630 80
2004-07-05 07:06:44 51°10.603 2°42.819 13 21 15.6 101630 80
2004-07-05 07:06:48 51°10.597 2°42.796 12.2 23 15.6 101630 80
2004-07-05 07:06:52 51°10.591 2°42.772 13.3 24 15.6 101630 80
2004-07-05 07:06:59 51°10.58 2°42.731 12.7 26 15.6 101630 80
2004-07-05 07:07:03 51°10.574 2°42.707 12.1 22 15.6 101630 80
2004-07-05 07:07:09 51°10.565 2°42.672 12.9 22 15.6 101630 80
2004-07-05 07:07:11 51°10.562 2°42.66 12.7 23 15.6 101630 80
2004-07-05 07:07:19 51°10.55 2°42.613 12.4 22 15.6 101630 80
2004-07-05 07:07:23 51°10.543 2°42.59 12.7 23 15.6 101630 80
2004-07-05 07:07:29 51°10.534 2°42.555 12.4 22 15.6 101630 80
2004-07-05 07:07:33 51°10.528 2°42.531 12.5 21 15.6 101630 80
2004-07-05 07:07:39 51°10.519 2°42.496 12.5 21 15.6 101630 80
2004-07-05 07:07:43 51°10.513 2°42.472 12.1 21 15.6 101630 80
2004-07-05 07:07:48 51°10.506 2°42.442 11.9 23 15.6 101630 80
2004-07-05 07:07:53 51°10.498 2°42.413 12.6 23 15.6 101630 80
2004-07-05 07:07:57 51°10.492 2°42.389 13 23 15.6 101630 80
2004-07-05 07:08:04 51°10.482 2°42.348 12.4 22 15.6 101630 80
2004-07-05 07:08:09 51°10.474 2°42.318 12 22 15.6 101640 80
2004-07-05 07:08:13 51°10.467 2°42.295 12.5 23 15.6 101640 80
2004-07-05 07:08:19 51°10.458 2°42.26 12.4 20 15.6 101630 80
2004-07-05 07:08:24 51°10.45 2°42.231 12.2 19 15.6 101630 80
2004-07-05 07:08:28 51°10.444 2°42.207 12.7 19 15.6 101640 80
2004-07-05 07:08:33 51°10.436 2°42.177 12.8 22 15.6 101640 80
2004-07-05 07:08:39 51°10.427 2°42.142 11.8 20 15.6 101640 80
2004-07-05 07:08:43 51°10.421 2°42.118 12.7 20 15.6 101640 80
2004-07-05 07:08:48 51°10.414 2°42.089 12.5 22 15.6 101640 80
2004-07-05 07:08:53 51°10.407 2°42.059 13.6 21 15.6 101640 80
2004-07-05 07:08:58 51°10.399 2°42.029 12.7 20 15.6 101630 80
2004-07-05 07:09:04 51°10.39 2°41.994 12.2 22 15.6 101630 80
2004-07-05 07:09:08 51°10.383 2°41.971 12.4 26 15.6 101640 80
2004-07-05 07:09:13 51°10.375 2°41.942 12.6 24 15.6 101640 80
2004-07-05 07:09:19 51°10.365 2°41.907 12.5 26 15.6 101640 80
2004-07-05 07:09:23 51°10.358 2°41.884 12.3 25 15.6 101640 80
2004-07-05 07:09:28 51°10.35 2°41.855 12.4 25 15.6 101640 80
2004-07-05 07:09:32 51°10.343 2°41.832 12 26 15.6 101640 80
2004-07-05 07:09:39 51°10.331 2°41.792 12.4 26 15.6 101630 80
2004-07-05 07:09:44 51°10.323 2°41.763 12.8 26 15.6 101630 80
2004-07-05 07:09:49 51°10.315 2°41.734 12.6 29 15.5 101640 79
2004-07-05 07:09:53 51°10.309 2°41.71 12.1 27 15.5 101640 79
2004-07-05 07:09:59 51°10.3 2°41.675 12.2 26 15.5 101640 79
2004-07-05 07:10:04 51°10.292 2°41.645 11.6 25 15.5 101640 79
2004-07-05 07:10:09 51°10.285 2°41.616 12.3 24 15.5 101640 80
2004-07-05 07:10:13 51°10.279 2°41.592 12.3 21 15.5 101640 80
2004-07-05 07:10:19 51°10.27 2°41.557 12.1 23 15.5 101640 80
2004-07-05 07:10:24 51°10.263 2°41.527 13.3 23 15.5 101640 80
2004-07-05 07:10:27 51°10.258 2°41.51 12.4 22 15.6 101640 80
2004-07-05 07:10:34 51°10.248 2°41.468 12.5 25 15.6 101640 80
2004-07-05 07:10:39 51°10.24 2°41.439 12.1 25 15.5 101640 80
2004-07-05 07:10:44 51°10.232 2°41.41 12.6 25 15.5 101640 80
2004-07-05 07:10:49 51°10.224 2°41.381 11.6 24 15.5 101640 80
2004-07-05 07:10:53 51°10.218 2°41.357 11.9 23 15.5 101640 80
2004-07-05 07:10:59 51°10.209 2°41.322 11.5 23 15.6 101640 80
2004-07-05 07:11:03 51°10.203 2°41.298 13.5 24 15.6 101640 80
2004-07-05 07:11:08 51°10.196 2°41.269 12.9 22 15.6 101640 80
2004-07-05 07:11:13 51°10.188 2°41.239 13.4 24 15.6 101640 80
2004-07-05 07:11:19 51°10.179 2°41.203 13.8 23 15.6 101650 80
2004-07-05 07:11:24 51°10.172 2°41.174 12.9 25 15.6 101650 80
2004-07-05 07:11:29 51°10.164 2°41.144 13.6 24 15.6 101640 80
2004-07-05 07:11:33 51°10.158 2°41.121 12.5 24 15.6 101640 80
2004-07-05 07:11:39 51°10.149 2°41.085 12.5 20 15.6 101640 80
2004-07-05 07:11:44 51°10.141 2°41.056 13.1 22 15.6 101640 80
2004-07-05 07:11:49 51°10.134 2°41.026 12.5 22 15.6 101640 80
2004-07-05 07:11:53 51°10.128 2°41.002 12.3 23 15.6 101640 80
2004-07-05 07:11:59 51°10.119 2°40.967 12.6 21 15.6 101640 80
2004-07-05 07:12:04 51°10.112 2°40.937 12.3 22 15.6 101640 80
2004-07-05 07:12:08 51°10.105 2°40.914 12.8 22 15.6 101640 80
2004-07-05 07:12:21 51°10.085 2°40.838 12.2 21 15.6 101640 80
2004-07-05 07:12:25 51°10.078 2°40.815 11.9 22 15.6 101650 80
2004-07-05 07:12:32 51°10.066 2°40.774 12.8 22 15.6 101650 80
2004-07-05 07:12:37 51°10.058 2°40.745 13.2 24 15.6 101640 80
2004-07-05 07:12:42 51°10.05 2°40.716 12.8 25 15.6 101640 80
2004-07-05 07:12:47 51°10.042 2°40.687 13 24 15.6 101640 80
2004-07-05 07:12:52 51°10.035 2°40.657 12.4 22 15.6 101640 80
2004-07-05 07:12:57 51°10.027 2°40.628 12.7 23 15.6 101640 80
2004-07-05 07:13:01 51°10.021 2°40.604 12.1 24 15.6 101640 80
2004-07-05 07:13:07 51°10.013 2°40.568 11.9 21 15.6 101650 80
2004-07-05 07:13:12 51°10.006 2°40.539 12.8 20 15.6 101650 80
2004-07-05 07:13:17 51°9.999 2°40.509 12.1 26 15.5 101640 80
2004-07-05 07:13:21 51°9.993 2°40.485 13.2 24 15.5 101640 80
2004-07-05 07:13:27 51°9.984 2°40.449 12.8 25 15.6 101640 80
2004-07-05 07:13:32 51°9.976 2°40.42 12.2 26 15.6 101640 80
2004-07-05 07:13:35 51°9.971 2°40.402 12.3 25 15.6 101650 80
2004-07-05 07:13:41 51°9.961 2°40.368 11.9 25 15.6 101650 80
2004-07-05 07:13:47 51°9.952 2°40.333 12.1 22 15.6 101650 80
2004-07-05 07:13:51 51°9.945 2°40.31 12.6 22 15.6 101650 80
2004-07-05 07:13:56 51°9.937 2°40.28 12.4 24 15.6 101650 80
2004-07-05 07:14:01 51°9.93 2°40.251 13.4 22 15.6 101650 80
2004-07-05 07:14:05 51°9.924 2°40.227 12.7 18 15.6 101650 80
2004-07-05 07:14:11 51°9.917 2°40.19 12.8 17 15.6 101650 80
2004-07-05 07:14:16 51°9.911 2°40.16 12.8 17 15.5 101650 80
2004-07-05 07:14:21 51°9.905 2°40.13 12.8 18 15.5 101650 80
2004-07-05 07:14:27 51°9.898 2°40.093 12.6 18 15.5 101650 80
2004-07-05 07:14:32 51°9.892 2°40.062 13.1 18 15.5 101650 80
2004-07-05 07:14:37 51°9.886 2°40.032 13.1 20 15.5 101650 80
2004-07-05 07:14:41 51°9.881 2°40.007 13.1 19 15.5 101650 80
2004-07-05 07:14:47 51°9.874 2°39.971 12 19 15.5 101660 80
2004-07-05 07:14:51 51°9.869 2°39.947 11.5 19 15.5 101660 80
2004-07-05 07:14:56 51°9.862 2°39.917 12.1 17 15.5 101650 80
2004-07-05 07:15:01 51°9.855 2°39.887 12.6 20 15.5 101650 80
2004-07-05 07:15:07 51°9.848 2°39.85 12.6 19 15.5 101650 80
2004-07-05 07:15:12 51°9.842 2°39.82 13.2 20 15.5 101650 80
2004-07-05 07:15:16 51°9.837 2°39.795 13.1 17 15.5 101660 80
2004-07-05 07:15:21 51°9.831 2°39.765 13.2 20 15.5 101660 80
2004-07-05 07:15:27 51°9.824 2°39.728 13 18 15.5 101660 80
2004-07-05 07:15:31 51°9.82 2°39.703 12.8 19 15.5 101660 80
2004-07-05 07:15:36 51°9.814 2°39.672 12.4 18 15.5 101660 80
2004-07-05 07:15:41 51°9.809 2°39.642 12.6 20 15.5 101660 80
2004-07-05 07:15:47 51°9.802 2°39.605 13 22 15.5 101650 80
2004-07-05 07:15:52 51°9.795 2°39.575 12.4 20 15.5 101650 80
2004-07-05 07:15:56 51°9.79 2°39.55 12.4 22 15.5 101660 80
2004-07-05 07:16:02 51°9.783 2°39.514 13.2 20 15.5 101660 80
2004-07-05 07:16:07 51°9.776 2°39.484 12.5 23 15.5 101650 80
2004-07-05 07:16:12 51°9.769 2°39.454 12.2 22 15.5 101650 80
2004-07-05 07:16:17 51°9.763 2°39.423 12.6 23 15.5 101650 80
2004-07-05 07:16:21 51°9.758 2°39.399 12.9 22 15.5 101650 80
2004-07-05 07:16:27 51°9.75 2°39.362 12.5 21 15.5 101650 80
2004-07-05 07:16:32 51°9.744 2°39.332 12.1 21 15.5 101650 80
2004-07-05 07:16:35 51°9.741 2°39.313 12.8 20 15.5 101660 80
2004-07-05 07:16:41 51°9.733 2°39.277 12.6 20 15.5 101660 80
2004-07-05 07:16:47 51°9.725 2°39.24 12.8 21 15.5 101660 80
2004-07-05 07:16:51 51°9.72 2°39.216 12.6 22 15.5 101660 80
2004-07-05 07:16:56 51°9.714 2°39.185 12.3 23 15.5 101660 80
2004-07-05 07:17:01 51°9.708 2°39.155 12.6 21 15.5 101660 80
2004-07-05 07:17:07 51°9.7 2°39.118 12.9 22 15.5 101660 80
2004-07-05 07:17:12 51°9.694 2°39.087 12 21 15.5 101660 80
2004-07-05 07:17:17 51°9.687 2°39.057 11.7 23 15.5 101650 80
2004-07-05 07:17:21 51°9.683 2°39.032 12.9 23 15.5 101650 80
2004-07-05 07:17:27 51°9.676 2°38.995 12.5 21 15.5 101650 80
2004-07-05 07:17:32 51°9.67 2°38.964 12.6 20 15.5 101650 80
2004-07-05 07:17:36 51°9.665 2°38.94 12.9 20 15.5 101660 80
2004-07-05 07:17:41 51°9.659 2°38.909 12.7 20 15.5 101660 80
2004-07-05 07:17:47 51°9.652 2°38.872 12.6 20 15.5 101660 80
2004-07-05 07:17:52 51°9.646 2°38.842 12.6 17 15.5 101660 80
2004-07-05 07:17:57 51°9.639 2°38.811 13 26 15.5 101660 80
2004-07-05 07:18:01 51°9.634 2°38.786 11.8 24 15.5 101660 80
2004-07-05 07:18:07 51°9.626 2°38.75 12.8 26 15.5 101660 80
2004-07-05 07:18:12 51°9.62 2°38.72 11.7 23 15.5 101660 80
2004-07-05 07:18:17 51°9.613 2°38.689 12.1 25 15.5 101670 80
2004-07-05 07:18:21 51°9.608 2°38.666 11.8 25 15.5 101670 80
2004-07-05 07:18:27 51°9.601 2°38.634 10.9 36 15.5 101660 80
2004-07-05 07:18:31 51°9.594 2°38.616 10 42 15.5 101660 80
2004-07-05 07:18:36 51°9.584 2°38.598 8.6 48 15.5 101660 80
2004-07-05 07:18:41 51°9.573 2°38.583 7.8 53 15.5 101660 80
2004-07-05 07:18:47 51°9.561 2°38.569 7.6 57 15.5 101670 80
2004-07-05 07:18:52 51°9.55 2°38.561 7 72 15.5 101670 80
2004-07-05 07:18:57 51°9.54 2°38.556 6.2 75 15.5 101660 80
2004-07-05 07:19:01 51°9.532 2°38.554 7.4 96 15.5 101660 80
2004-07-05 07:19:07 51°9.521 2°38.553 6.2 108 15.5 101670 80
2004-07-05 07:19:12 51°9.512 2°38.555 5.8 113 15.5 101670 80
2004-07-05 07:19:17 51°9.504 2°38.559 4.4 125 15.5 101680 80
2004-07-05 07:19:21 51°9.498 2°38.564 3.6 136 15.5 101680 80
2004-07-05 07:19:27 51°9.49 2°38.572 3.1 165 15.5 101670 80
2004-07-05 07:19:32 51°9.485 2°38.58 2.6 174 15.5 101670 80
2004-07-05 07:19:36 51°9.481 2°38.588 2.4 215 15.5 101680 80
2004-07-05 07:19:41 51°9.478 2°38.598 1.4 270 15.5 101680 80
2004-07-05 07:19:47 51°9.475 2°38.611 2.3 262 15.5 101680 80
2004-07-05 07:19:52 51°9.474 2°38.623 2.1 255 15.5 101680 80
2004-07-05 07:19:57 51°9.474 2°38.635 3.8 234 15.5 101680 81
2004-07-05 07:20:00 51°9.474 2°38.643 2.3 249 15.5 101680 81
2004-07-05 07:20:07 51°9.475 2°38.661 2.7 248 15.5 101690 81
2004-07-05 07:20:12 51°9.476 2°38.676 3.1 247 15.5 101690 81
2004-07-05 07:20:16 51°9.476 2°38.689 2.9 251 15.5 101690 81
2004-07-05 07:20:21 51°9.478 2°38.705 3.2 266 15.5 101690 81
2004-07-05 07:20:27 51°9.479 2°38.726 3.6 263 15.5 101690 81
2004-07-05 07:20:32 51°9.481 2°38.744 3.9 286 15.5 101690 81
2004-07-05 07:20:36 51°9.483 2°38.759 4.2 287 15.5 101690 81
2004-07-05 07:20:41 51°9.486 2°38.777 4.6 285 15.5 101690 81
2004-07-05 07:20:47 51°9.491 2°38.801 4.9 288 15.5 101690 81
2004-07-05 07:20:52 51°9.496 2°38.82 5.1 293 15.5 101690 81
2004-07-05 07:20:57 51°9.501 2°38.841 4.5 291 15.5 101690 81
2004-07-05 07:20:59 51°9.503 2°38.849 4.3 288 15.5 101690 81
2004-07-05 07:21:05 51°9.509 2°38.874 3.9 290 15.5 101690 81
2004-07-05 07:21:12 51°9.515 2°38.905 4.2 285 15.5 101690 81
2004-07-05 07:21:15 51°9.517 2°38.918 3.8 287 15.5 101690 81
2004-07-05 07:21:21 51°9.521 2°38.945 3.2 295 15.5 101690 81
2004-07-05 07:21:27 51°9.524 2°38.973 3.7 293 15.5 101690 81
2004-07-05 07:21:32 51°9.527 2°38.996 4.2 306 15.5 101690 81
2004-07-05 07:21:36 51°9.53 2°39.015 4.1 298 15.5 101690 81
2004-07-05 07:21:41 51°9.533 2°39.038 3.6 287 15.5 101690 81
2004-07-05 07:21:47 51°9.536 2°39.066 4.4 291 15.5 101690 81
2004-07-05 07:21:52 51°9.54 2°39.09 4.2 285 15.5 101690 81
2004-07-05 07:21:56 51°9.542 2°39.109 4.2 286 15.5 101690 81
2004-07-05 07:22:01 51°9.546 2°39.132 3.9 285 15.5 101690 81
2004-07-05 07:22:07 51°9.55 2°39.161 3.1 289 15.6 101690 81
2004-07-05 07:22:12 51°9.554 2°39.184 4 277 15.6 101690 81
2004-07-05 07:22:16 51°9.558 2°39.203 4.3 292 15.6 101690 81
2004-07-05 07:22:21 51°9.562 2°39.226 4.6 296 15.6 101690 81
2004-07-05 07:22:27 51°9.567 2°39.255 4.4 299 15.6 101690 81
2004-07-05 07:22:32 51°9.571 2°39.278 4.2 288 15.6 101690 81
2004-07-05 07:22:37 51°9.576 2°39.302 3.5 289 15.6 101690 81
2004-07-05 07:22:41 51°9.579 2°39.321 4.6 287 15.6 101690 81
2004-07-05 07:22:47 51°9.584 2°39.348 4.3 287 15.6 101690 81
2004-07-05 07:22:52 51°9.588 2°39.372 4.7 288 15.6 101690 81
2004-07-05 07:22:57 51°9.594 2°39.395 4.3 290 15.6 101690 81
2004-07-05 07:23:01 51°9.598 2°39.413 4.4 288 15.6 101690 81
2004-07-05 07:23:07 51°9.606 2°39.439 4.2 290 15.6 101690 81
2004-07-05 07:23:12 51°9.613 2°39.461 4.9 296 15.6 101690 81
2004-07-05 07:23:16 51°9.619 2°39.478 4.7 294 15.7 101690 80
2004-07-05 07:23:21 51°9.626 2°39.5 4.6 293 15.7 101690 80
2004-07-05 07:23:33 51°9.643 2°39.553 3.4 291 15.7 101690 80
2004-07-05 07:23:39 51°9.648 2°39.581 3.3 288 15.7 101690 80
2004-07-05 07:23:43 51°9.652 2°39.6 3.1 293 15.7 101690 80
2004-07-05 07:23:48 51°9.655 2°39.623 3.1 294 15.7 101690 80
2004-07-05 07:23:53 51°9.658 2°39.646 3.1 291 15.7 101690 80
2004-07-05 07:23:59 51°9.661 2°39.674 3.4 298 15.7 101690 80
2004-07-05 07:24:04 51°9.663 2°39.697 3.4 290 15.7 101690 80
2004-07-05 07:24:08 51°9.664 2°39.715 2.9 280 15.7 101690 80
2004-07-05 07:24:14 51°9.665 2°39.742 3.3 277 15.7 101690 80
2004-07-05 07:24:19 51°9.666 2°39.764 2.8 270 15.7 101700 80
2004-07-05 07:24:24 51°9.667 2°39.786 3.2 271 15.7 101700 80
2004-07-05 07:24:28 51°9.668 2°39.804 3.3 271 15.7 101690 80
2004-07-05 07:24:33 51°9.669 2°39.826 3.6 268 15.7 101690 80
2004-07-05 07:24:39 51°9.671 2°39.852 3.2 272 15.7 101700 80
2004-07-05 07:24:44 51°9.673 2°39.873 3.1 283 15.7 101700 80
2004-07-05 07:24:48 51°9.675 2°39.891 3.9 271 15.7 101700 80
2004-07-05 07:24:54 51°9.679 2°39.915 4.2 271 15.7 101700 80
2004-07-05 07:24:57 51°9.681 2°39.928 3.7 268 15.7 101690 79
2004-07-05 07:25:04 51°9.686 2°39.957 3.6 266 15.7 101690 79
2004-07-05 07:25:09 51°9.69 2°39.977 3.7 268 15.7 101690 79
2004-07-05 07:25:13 51°9.694 2°39.993 3.4 274 15.7 101690 79
2004-07-05 07:25:19 51°9.699 2°40.017 4.1 277 15.7 101690 79
2004-07-05 07:25:24 51°9.705 2°40.038 4.3 288 15.7 101690 79
2004-07-05 07:25:29 51°9.709 2°40.058 4.3 296 15.7 101700 79
2004-07-05 07:25:33 51°9.713 2°40.074 3.8 283 15.7 101700 79
2004-07-05 07:25:39 51°9.718 2°40.098 4.6 278 15.7 101690 79
2004-07-05 07:25:44 51°9.721 2°40.117 4.7 267 15.7 101690 79
2004-07-05 07:25:49 51°9.724 2°40.135 3.6 281 15.7 101690 79
2004-07-05 07:25:53 51°9.726 2°40.149 1.9 257 15.7 101690 79
2004-07-05 07:25:59 51°9.728 2°40.168 3 251 15.7 101690 79
2004-07-05 07:26:04 51°9.728 2°40.183 3.4 238 15.7 101690 79
2004-07-05 07:26:08 51°9.728 2°40.194 3.1 232 15.7 101700 80
2004-07-05 07:26:13 51°9.727 2°40.208 2.4 217 15.7 101700 80
2004-07-05 07:26:19 51°9.726 2°40.222 2.8 230 15.7 101700 80
2004-07-05 07:26:24 51°9.724 2°40.234 3.1 216 15.7 101700 80
2004-07-05 07:26:28 51°9.723 2°40.242 3.5 213 15.7 101700 79
2004-07-05 07:26:33 51°9.721 2°40.252 3.2 207 15.7 101700 79
2004-07-05 07:26:39 51°9.718 2°40.263 3.6 200 15.7 101700 79
2004-07-05 07:26:44 51°9.716 2°40.272 2.1 195 15.7 101700 79
2004-07-05 07:26:48 51°9.714 2°40.278 1.9 192 15.7 101700 79
2004-07-05 07:26:53 51°9.711 2°40.286 2.5 174 15.7 101700 79
2004-07-05 07:26:59 51°9.707 2°40.294 3.3 175 15.7 101700 79
2004-07-05 07:27:04 51°9.705 2°40.301 2.5 183 15.7 101700 79
2004-07-05 07:27:08 51°9.702 2°40.306 3.3 176 15.7 101700 79
2004-07-05 07:27:13 51°9.699 2°40.312 3.5 177 15.7 101700 79
2004-07-05 07:27:19 51°9.696 2°40.319 2.9 181 15.7 101700 79
2004-07-05 07:27:24 51°9.693 2°40.324 3.9 171 15.7 101700 79
2004-07-05 07:27:28 51°9.691 2°40.328 3.8 168 15.7 101700 79
2004-07-05 07:27:33 51°9.689 2°40.332 4.5 175 15.7 101700 79
2004-07-05 07:27:39 51°9.685 2°40.338 3.8 176 15.7 101700 79
2004-07-05 07:27:43 51°9.683 2°40.341 4.4 162 15.7 101700 79
2004-07-05 07:27:49 51°9.68 2°40.346 4.4 163 15.7 101700 79
2004-07-05 07:27:53 51°9.678 2°40.349 4.6 166 15.7 101700 79
2004-07-05 07:27:58 51°9.675 2°40.353 4.9 164 15.7 101700 79
2004-07-05 07:28:04 51°9.672 2°40.357 5.1 163 15.7 101700 79
2004-07-05 07:28:09 51°9.669 2°40.361 4.8 164 15.7 101700 79
2004-07-05 07:28:13 51°9.667 2°40.363 4.9 165 15.7 101700 79
2004-07-05 07:28:19 51°9.664 2°40.367 5.6 162 15.7 101700 79
2004-07-05 07:28:23 51°9.662 2°40.369 5.4 165 15.7 101700 79
2004-07-05 07:28:28 51°9.659 2°40.372 5.2 164 15.7 101700 79
2004-07-05 07:28:33 51°9.657 2°40.375 5.5 163 15.7 101700 79
2004-07-05 07:28:39 51°9.654 2°40.378 5.3 163 15.7 101700 79
2004-07-05 07:28:44 51°9.651 2°40.381 5.1 162 15.7 101700 79
2004-07-05 07:28:49 51°9.649 2°40.383 5.5 165 15.7 101700 79
2004-07-05 07:28:53 51°9.647 2°40.385 6 162 15.7 101700 79
2004-07-05 07:28:59 51°9.644 2°40.388 5.3 163 15.6 101700 79
2004-07-05 07:29:04 51°9.642 2°40.39 5.7 166 15.6 101700 79
2004-07-05 07:29:09 51°9.639 2°40.392 4.9 165 15.6 101700 79
2004-07-05 07:29:13 51°9.637 2°40.394 4.9 165 15.6 101700 79
2004-07-05 07:29:19 51°9.635 2°40.396 4.9 164 15.5 101700 79
2004-07-05 07:29:24 51°9.633 2°40.398 4.7 163 15.5 101700 79
2004-07-05 07:29:29 51°9.63 2°40.4 4.6 164 15.5 101700 79
2004-07-05 07:29:32 51°9.629 2°40.401 4.9 165 15.5 101700 79
2004-07-05 07:29:39 51°9.626 2°40.404 4.3 162 15.5 101700 79
2004-07-05 07:29:44 51°9.624 2°40.406 5.6 174 15.5 101700 79
2004-07-05 07:29:48 51°9.622 2°40.407 4.7 165 15.5 101700 79
2004-07-05 07:29:53 51°9.62 2°40.409 5.3 168 15.5 101700 79
2004-07-05 07:29:59 51°9.617 2°40.411 4.8 168 15.5 101700 79
2004-07-05 07:30:04 51°9.615 2°40.413 5.1 166 15.5 101700 79
2004-07-05 07:30:09 51°9.612 2°40.415 5.7 168 15.5 101710 79
2004-07-05 07:30:12 51°9.611 2°40.416 5.4 170 15.5 101710 79
2004-07-05 07:30:19 51°9.609 2°40.418 5.2 170 15.5 101700 79
2004-07-05 07:30:23 51°9.607 2°40.419 4.8 171 15.5 101700 79
2004-07-05 07:30:28 51°9.605 2°40.421 5.2 169 15.4 101700 79
2004-07-05 07:30:33 51°9.604 2°40.422 5.1 169 15.4 101700 79
2004-07-05 07:30:39 51°9.601 2°40.424 4.4 178 15.4 101700 80
2004-07-05 07:30:44 51°9.599 2°40.425 5.1 174 15.4 101700 80
2004-07-05 07:30:49 51°9.597 2°40.427 5.6 170 15.4 101710 80
2004-07-05 07:30:53 51°9.596 2°40.428 5.4 159 15.4 101710 80
2004-07-05 07:30:59 51°9.594 2°40.43 5.4 171 15.5 101710 80
2004-07-05 07:31:04 51°9.592 2°40.431 5.6 173 15.5 101710 80
2004-07-05 07:31:08 51°9.591 2°40.432 5.1 170 15.5 101700 80
2004-07-05 07:31:13 51°9.589 2°40.434 4.3 173 15.5 101700 80
2004-07-05 07:31:19 51°9.587 2°40.435 4.8 176 15.4 101710 80
2004-07-05 07:31:24 51°9.586 2°40.436 4.7 180 15.4 101710 80
2004-07-05 07:31:28 51°9.585 2°40.437 4.8 182 15.5 101700 81
2004-07-05 07:31:33 51°9.583 2°40.438 2.9 194 15.5 101700 81
2004-07-05 07:31:39 51°9.581 2°40.44 3.3 180 15.5 101710 80
2004-07-05 07:31:44 51°9.58 2°40.442 3.2 186 15.5 101710 80
2004-07-05 07:31:48 51°9.579 2°40.443 3.6 187 15.4 101710 80
2004-07-05 07:31:53 51°9.578 2°40.444 2.3 192 15.4 101710 80
2004-07-05 07:31:59 51°9.576 2°40.446 2.6 186 15.4 101710 80
2004-07-05 07:32:04 51°9.575 2°40.447 2.4 198 15.4 101710 80
2004-07-05 07:32:08 51°9.574 2°40.448 3.4 179 15.5 101700 81
2004-07-05 07:32:13 51°9.573 2°40.449 2.8 205 15.5 101700 81
2004-07-05 07:32:18 51°9.572 2°40.452 2.7 224 15.6 101710 81
2004-07-05 07:32:24 51°9.571 2°40.455 3 205 15.6 101710 81
2004-07-05 07:32:28 51°9.57 2°40.457 3.3 205 15.6 101710 81
2004-07-05 07:32:33 51°9.57 2°40.461 5 214 15.6 101710 81
2004-07-05 07:32:37 51°9.569 2°40.464 4.1 214 15.7 101710 81
2004-07-05 07:32:44 51°9.569 2°40.469 4.4 235 15.7 101710 81
2004-07-05 07:32:49 51°9.57 2°40.473 4.7 237 15.7 101710 81
2004-07-05 07:32:52 51°9.57 2°40.476 4.3 243 15.7 101710 81
2004-07-05 07:32:59 51°9.571 2°40.482 4.7 247 15.7 101710 80
2004-07-05 07:33:04 51°9.572 2°40.488 4.4 257 15.7 101710 80
2004-07-05 07:33:09 51°9.574 2°40.493 4.9 257 15.7 101710 80
2004-07-05 07:33:13 51°9.577 2°40.497 6.4 260 15.7 101710 80
2004-07-05 07:33:19 51°9.581 2°40.503 6.8 269 15.7 101710 80
2004-07-05 07:33:24 51°9.585 2°40.508 7.3 273 15.7 101710 80
2004-07-05 07:33:29 51°9.589 2°40.512 7.1 283 15.7 101710 80
2004-07-05 07:33:34 51°9.595 2°40.516 7.5 295 15.7 101710 80
2004-07-05 07:33:39 51°9.601 2°40.519 6.8 298 15.7 101710 80
2004-07-05 07:33:44 51°9.608 2°40.521 7.9 310 15.7 101710 80
2004-07-05 07:33:48 51°9.614 2°40.522 7.2 312 15.6 101710 80
2004-07-05 07:33:53 51°9.623 2°40.522 7.7 316 15.6 101710 80
2004-07-05 07:33:59 51°9.633 2°40.52 8.9 320 15.7 101710 80
2004-07-05 07:34:04 51°9.643 2°40.517 9 324 15.7 101710 80
2004-07-05 07:34:09 51°9.653 2°40.513 9.5 327 15.7 101700 80
2004-07-05 07:34:13 51°9.661 2°40.508 9.5 332 15.7 101700 80
2004-07-05 07:34:19 51°9.674 2°40.5 9.5 331 15.7 101700 80
2004-07-05 07:34:23 51°9.682 2°40.493 10.2 338 15.7 101700 80
2004-07-05 07:34:28 51°9.693 2°40.482 9.8 344 15.7 101690 80
2004-07-05 07:34:32 51°9.702 2°40.473 11 349 15.7 101690 80
2004-07-05 07:34:39 51°9.717 2°40.454 11.4 349 15.7 101690 80
2004-07-05 07:34:44 51°9.727 2°40.439 10.9 352 15.7 101690 80
2004-07-05 07:34:49 51°9.738 2°40.422 11.2 352 15.7 101690 80
2004-07-05 07:34:53 51°9.745 2°40.407 10.9 355 15.7 101690 80
2004-07-05 07:34:59 51°9.756 2°40.383 11.2 358 15.7 101690 80
2004-07-05 07:35:04 51°9.764 2°40.362 11.6 3 15.7 101690 80
2004-07-05 07:35:08 51°9.769 2°40.343 11.6 3 15.7 101680 80
2004-07-05 07:35:14 51°9.777 2°40.314 11.9 6 15.7 101680 80
2004-07-05 07:35:19 51°9.783 2°40.288 11.8 5 15.7 101690 80
2004-07-05 07:35:24 51°9.788 2°40.262 11.4 9 15.7 101690 80
2004-07-05 07:35:29 51°9.793 2°40.235 11.3 10 15.7 101690 80
2004-07-05 07:35:34 51°9.796 2°40.207 12.1 17 15.7 101690 80
2004-07-05 07:35:39 51°9.798 2°40.178 12.1 15 15.7 101690 80
2004-07-05 07:35:43 51°9.798 2°40.154 12.9 19 15.7 101690 80
2004-07-05 07:35:49 51°9.797 2°40.118 12.7 21 15.7 101690 80
2004-07-05 07:35:53 51°9.795 2°40.095 11.8 23 15.7 101690 80
2004-07-05 07:35:59 51°9.792 2°40.059 12.2 24 15.6 101690 80
2004-07-05 07:36:04 51°9.789 2°40.029 11.8 24 15.6 101690 80
2004-07-05 07:36:08 51°9.785 2°40.005 11.9 26 15.7 101690 80
2004-07-05 07:36:12 51°9.782 2°39.981 11.7 25 15.7 101690 80
2004-07-05 07:36:19 51°9.774 2°39.939 11.6 25 15.6 101690 80
2004-07-05 07:36:23 51°9.77 2°39.915 12.4 20 15.6 101690 80
2004-07-05 07:36:29 51°9.763 2°39.879 12 24 15.6 101690 80
2004-07-05 07:36:33 51°9.759 2°39.855 12.4 22 15.6 101690 80
2004-07-05 07:36:39 51°9.754 2°39.818 12.1 20 15.6 101690 80
2004-07-05 07:36:44 51°9.75 2°39.788 12 20 15.6 101690 80
2004-07-05 07:36:48 51°9.746 2°39.763 12.2 19 15.6 101690 80
2004-07-05 07:36:53 51°9.742 2°39.732 12.5 23 15.6 101690 80
2004-07-05 07:36:59 51°9.738 2°39.695 13 21 15.6 101700 80
2004-07-05 07:37:03 51°9.735 2°39.67 12.8 21 15.6 101700 80
2004-07-05 07:37:09 51°9.73 2°39.633 13 21 15.6 101700 80
2004-07-05 07:37:13 51°9.726 2°39.608 12.9 22 15.6 101700 80
2004-07-05 07:37:19 51°9.721 2°39.571 12.5 22 15.6 101690 80
2004-07-05 07:37:24 51°9.715 2°39.541 12.5 25 15.6 101690 80
2004-07-05 07:37:29 51°9.71 2°39.51 12.7 25 15.6 101690 80
2004-07-05 07:37:33 51°9.705 2°39.485 12.2 26 15.6 101690 80
2004-07-05 07:37:39 51°9.698 2°39.448 12.3 27 15.5 101690 80
2004-07-05 07:37:44 51°9.692 2°39.418 12.5 25 15.5 101690 80
2004-07-05 07:37:48 51°9.687 2°39.393 12.4 26 15.5 101690 80
2004-07-05 07:37:53 51°9.682 2°39.363 12.3 24 15.5 101690 80
2004-07-05 07:37:59 51°9.675 2°39.325 12.5 22 15.5 101690 80
2004-07-05 07:38:04 51°9.671 2°39.294 12.4 23 15.5 101690 80
2004-07-05 07:38:09 51°9.667 2°39.263 12.6 22 15.5 101690 80
2004-07-05 07:38:13 51°9.663 2°39.237 12.1 23 15.5 101690 80
2004-07-05 07:38:19 51°9.659 2°39.2 12.6 24 15.6 101700 81
2004-07-05 07:38:24 51°9.654 2°39.168 12.6 21 15.6 101700 81
2004-07-05 07:38:28 51°9.651 2°39.143 12.7 22 15.5 101690 81
2004-07-05 07:38:40 51°9.641 2°39.067 12.3 24 15.5 101690 81
2004-07-05 07:38:47 51°9.634 2°39.023 11.8 25 15.5 101700 81
2004-07-05 07:38:52 51°9.628 2°38.992 12.6 26 15.5 101700 81
2004-07-05 07:38:57 51°9.623 2°38.961 12.7 24 15.5 101690 81
2004-07-05 07:39:01 51°9.618 2°38.936 12.5 23 15.5 101690 81
2004-07-05 07:39:07 51°9.612 2°38.9 12.3 25 15.5 101690 81
2004-07-05 07:39:12 51°9.607 2°38.868 12.3 25 15.5 101690 81
2004-07-05 07:39:17 51°9.602 2°38.837 12.1 23 15.5 101700 81
2004-07-05 07:39:21 51°9.598 2°38.811 12.4 22 15.5 101700 81
2004-07-05 07:39:25 51°9.594 2°38.786 12.8 23 15.5 101690 81
2004-07-05 07:39:32 51°9.588 2°38.742 12.3 23 15.5 101690 81
2004-07-05 07:39:36 51°9.585 2°38.716 12.6 24 15.5 101690 80
2004-07-05 07:39:40 51°9.581 2°38.691 11.9 22 15.5 101690 80
2004-07-05 07:39:47 51°9.575 2°38.648 12.3 24 15.5 101700 81
2004-07-05 07:39:52 51°9.57 2°38.616 12.8 26 15.5 101700 81
2004-07-05 07:39:57 51°9.565 2°38.584 11.7 26 15.5 101700 81
2004-07-05 07:40:01 51°9.561 2°38.559 12.1 26 15.5 101700 81
2004-07-05 07:40:07 51°9.554 2°38.522 11.2 25 15.5 101700 81